CST,Max TemperatureF,Mean TemperatureF,Min TemperatureF,Max Dew PointF,MeanDew PointF,Min DewpointF,Max Humidity, Mean Humidity, Min Humidity, Max Sea Level PressureIn, Mean Sea Level PressureIn, Min Sea Level PressureIn, Max VisibilityMiles, Mean VisibilityMiles, Min VisibilityMiles, Max Wind SpeedMPH, Mean Wind SpeedMPH, Max Gust SpeedMPH,PrecipitationIn, CloudCover, Events, WindDirDegrees
2012-11-1,67,51,35,39,35,31,82,57,34,30.06,29.99,29.93,10,10,10,10,4,13,0.00,0,,227
2012-11-2,69,56,43,43,39,32,82,55,38,30.03,29.97,29.93,10,10,10,10,6,17,0.00,0,,89
2012-11-3,64,53,41,43,37,32,76,57,43,30.17,30.03,29.95,10,10,10,17,7,23,0.00,0,,340
2012-11-4,61,47,33,36,32,28,92,61,31,30.23,30.17,30.13,10,9,3,8,3,12,0.00,0,,66
2012-11-5,47,45,42,41,39,34,96,85,63,30.12,30.04,29.98,10,4,1,13,5,17,0.31,8,Rain,115
2012-11-6,50,45,40,42,39,33,93,86,65,30.10,30.04,29.97,10,6,2,13,5,17,0.00,7,,253
2012-11-7,54,43,31,34,31,28,85,64,43,30.19,30.10,30.01,10,10,10,16,6,25,0.00,2,,319
2012-11-8,57,43,29,38,33,26,89,67,45,30.25,30.17,30.10,10,10,9,15,6,18,0.00,0,,156
2012-11-9,68,56,43,54,45,37,76,67,57,30.10,30.05,29.98,10,10,10,17,10,24,0.00,0,,173
2012-11-10,71,62,53,53,49,41,81,66,45,30.08,30.02,29.96,10,10,10,21,12,30,0.00,0,,169
2012-11-11,63,50,37,57,50,34,94,86,72,30.15,29.95,29.84,10,6,1,20,11,30,0.99,8,Rain,245
2012-11-12,48,37,26,32,23,19,89,63,33,30.49,30.35,30.18,10,10,7,20,8,26,0.00,2,,296
2012-11-13,54,40,26,26,21,17,82,52,26,30.54,30.48,30.42,10,10,10,8,2,10,0.00,0,,61
2012-11-14,53,40,27,28,23,17,85,58,26,30.47,30.41,30.35,10,10,10,8,1,16,0.00,0,,47
2012-11-15,57,41,24,30,25,19,85,59,32,30.39,30.36,30.33,10,10,10,6,0,14,0.00,0,,50
2012-11-16,60,45,30,32,27,24,79,56,31,30.45,30.42,30.39,10,10,10,9,1,13,0.00,0,,59
2012-11-17,58,43,27,30,26,23,82,55,30,30.49,30.43,30.38,10,10,9,9,3,16,0.00,0,,124
2012-11-18,61,44,26,35,29,23,85,57,27,30.39,30.35,30.30,10,10,8,10,3,14,0.00,0,,162
2012-11-19,51,47,43,45,41,34,87,77,61,30.30,30.23,30.16,10,9,2,10,4,14,0.03,6,Rain,184
2012-11-20,69,55,41,46,42,39,93,70,36,30.22,30.16,30.09,10,9,4,14,6,18,0.00,0,,292
2012-11-21,65,51,37,48,40,35,100,82,41,30.30,30.25,30.17,10,4,0,8,3,12,0.00,0,Fog,215
2012-11-22,66,55,44,52,46,41,94,77,45,30.16,30.10,30.02,10,6,2,17,7,24,0.30,3,Rain-Thunderstorm,205
2012-11-23,54,42,29,52,29,16,94,60,43,30.38,30.29,30.14,10,10,7,21,11,28,0.00,2,,313
2012-11-24,45,34,22,19,17,14,75,51,31,30.39,30.27,30.07,10,10,10,9,4,13,0.00,0,,245
2012-11-25,61,43,25,32,26,20,81,55,31,30.06,29.99,29.91,10,10,10,12,3,18,0.00,0,,206
2012-11-26,49,40,31,36,32,26,89,75,63,30.34,30.13,29.99,10,10,9,23,8,30,0.03,6,Rain-Thunderstorm,26
2012-11-27,45,34,23,24,19,17,81,63,33,30.46,30.38,30.34,10,10,10,14,4,20,0.00,0,,11
2012-11-28,51,37,23,29,23,17,75,58,38,30.47,30.39,30.31,10,10,10,8,3,21,0.00,0,,166
2012-11-29,60,45,29,31,29,27,88,58,32,30.30,30.23,30.15,10,10,10,14,6,18,0.00,0,,175
2012-11-30,64,50,35,48,40,29,86,67,47,30.18,30.14,30.09,10,9,7,12,6,15,0.00,1,,183